Time,TemperatureF,DewpointF,PressureIn,WindDirection,WindDirectionDegrees,WindSpeedMPH,WindSpeedGustMPH,Humidity,HourlyPrecipIn,Conditions,Clouds,dailyrainin,SoftwareType,DateUTC
2013-05-24 00:13:00,55.9,52.0,29.98,NNE,27,0.0,0.0,85,0.00,,,0.00,weatherlink.com 1.10,2013-05-23 22:13:00,
2013-05-24 00:28:00,55.8,52.0,29.98,NNW,327,0.0,1.0,86,0.00,,,0.00,weatherlink.com 1.10,2013-05-23 22:28:00,
2013-05-24 00:43:00,55.8,52.0,29.97,NNW,329,0.0,1.0,86,0.00,,,0.00,weatherlink.com 1.10,2013-05-23 22:43:00,
2013-05-24 00:58:00,55.9,52.0,29.97,NNW,329,0.0,0.0,85,0.00,,,0.00,weatherlink.com 1.10,2013-05-23 22:58:00,
2013-05-24 01:13:00,56.2,52.0,29.97,NNW,329,0.0,0.0,85,0.00,,,0.00,weatherlink.com 1.10,2013-05-23 23:13:00,
2013-05-24 01:28:00,55.9,52.0,29.97,NE,53,0.0,0.0,85,0.00,,,0.00,weatherlink.com 1.10,2013-05-23 23:28:00,
2013-05-24 01:43:00,54.6,51.0,29.97,South,177,0.0,0.0,87,0.00,,,0.00,weatherlink.com 1.10,2013-05-23 23:43:00,
2013-05-24 01:58:00,54.3,51.0,29.97,SE,135,0.0,0.0,88,0.00,,,0.00,weatherlink.com 1.10,2013-05-23 23:58:00,
2013-05-24 02:13:00,53.6,50.0,29.97,ENE,72,0.0,0.0,88,0.00,,,0.00,weatherlink.com 1.10,2013-05-24 00:13:00,
2013-05-24 02:28:00,53.0,50.0,29.96,NE,53,0.0,0.0,89,0.00,,,0.00,weatherlink.com 1.10,2013-05-24 00:28:00,
2013-05-24 02:58:00,53.4,51.0,29.96,NNE,32,0.0,0.0,90,0.00,,,0.00,weatherlink.com 1.10,2013-05-24 00:58:00,
2013-05-24 03:13:00,53.6,51.0,29.96,South,174,0.0,4.0,92,0.00,,,0.00,weatherlink.com 1.10,2013-05-24 01:13:00,
2013-05-24 03:28:00,53.7,51.0,29.96,SSE,167,1.0,1.0,89,0.00,,,0.00,weatherlink.com 1.10,2013-05-24 01:28:00,
2013-05-24 03:43:00,53.7,51.0,29.95,SW,215,1.0,3.0,91,0.00,,,0.00,weatherlink.com 1.10,2013-05-24 01:43:00,
2013-05-24 03:58:00,54.4,51.0,29.95,ENE,72,2.0,3.0,89,0.00,,,0.00,weatherlink.com 1.10,2013-05-24 01:58:00,
2013-05-24 04:13:00,53.5,50.0,29.95,NNE,30,0.0,3.0,88,0.00,,,0.00,weatherlink.com 1.10,2013-05-24 02:13:00,
2013-05-24 04:28:00,51.2,48.0,29.96,SE,137,6.0,7.0,90,0.00,,,0.00,weatherlink.com 1.10,2013-05-24 02:28:00,
2013-05-24 04:43:00,52.4,50.0,29.96,ESE,111,1.0,5.0,91,0.00,,,0.00,weatherlink.com 1.10,2013-05-24 02:43:00,
2013-05-24 04:59:00,52.4,50.0,29.95,WNW,286,0.0,0.0,92,0.00,,,0.00,weatherlink.com 1.10,2013-05-24 02:59:00,
2013-05-24 05:14:00,51.7,50.0,29.95,NW,304,0.0,3.0,93,0.00,,,0.00,weatherlink.com 1.10,2013-05-24 03:14:00,
2013-05-24 05:29:00,52.6,51.0,29.95,NW,325,1.0,2.0,93,0.00,,,0.00,weatherlink.com 1.10,2013-05-24 03:29:00,
2013-05-24 05:44:00,53.5,52.0,29.95,WSW,255,0.0,1.0,93,0.00,,,0.00,weatherlink.com 1.10,2013-05-24 03:44:00,
2013-05-24 05:59:00,52.9,51.0,29.95,WSW,247,0.0,1.0,93,0.00,,,0.00,weatherlink.com 1.10,2013-05-24 03:59:00,
2013-05-24 06:14:00,52.3,50.0,29.95,WSW,256,1.0,2.0,90,0.00,,,0.00,weatherlink.com 1.10,2013-05-24 04:14:00,
2013-05-24 06:29:00,51.2,49.0,29.95,West,259,0.0,1.0,92,0.00,,,0.00,weatherlink.com 1.10,2013-05-24 04:29:00,
2013-05-24 06:44:00,50.6,49.0,29.95,ESE,120,1.0,2.0,94,0.00,,,0.00,weatherlink.com 1.10,2013-05-24 04:44:00,
2013-05-24 06:59:00,51.2,50.0,29.96,SSE,157,2.0,3.0,95,0.00,,,0.00,weatherlink.com 1.10,2013-05-24 04:59:00,
2013-05-24 07:14:00,50.8,49.0,29.96,NE,41,0.0,2.0,92,0.00,,,0.00,weatherlink.com 1.10,2013-05-24 05:14:00,
2013-05-24 07:29:00,51.0,49.0,29.97,NNE,26,2.0,3.0,93,0.00,,,0.00,weatherlink.com 1.10,2013-05-24 05:29:00,
2013-05-24 07:44:00,52.8,51.0,29.97,NNE,33,1.0,1.0,92,0.00,,,0.00,weatherlink.com 1.10,2013-05-24 05:44:00,
2013-05-24 07:59:00,54.5,52.0,29.97,ENE,74,0.0,1.0,91,0.00,,,0.00,weatherlink.com 1.10,2013-05-24 05:59:00,
2013-05-24 08:14:00,56.1,53.0,29.97,SW,225,0.0,0.0,88,0.00,,,0.00,weatherlink.com 1.10,2013-05-24 06:14:00,
2013-05-24 08:29:00,57.8,52.0,29.97,SSW,198,0.0,3.0,80,0.00,,,0.00,weatherlink.com 1.10,2013-05-24 06:29:00,
2013-05-24 08:44:00,59.9,50.0,29.97,WSW,244,2.0,5.0,71,0.00,,,0.00,weatherlink.com 1.10,2013-05-24 06:44:00,
2013-05-24 08:59:00,60.8,50.0,29.97,South,181,4.0,5.0,68,0.00,,,0.00,weatherlink.com 1.10,2013-05-24 06:59:00,
2013-05-24 09:14:00,61.1,49.0,29.98,SSE,165,2.0,5.0,65,0.00,,,0.00,weatherlink.com 1.10,2013-05-24 07:14:00,
2013-05-24 09:29:00,62.1,51.0,29.98,WNW,288,5.0,7.0,67,0.00,,,0.00,weatherlink.com 1.10,2013-05-24 07:29:00,
2013-05-24 09:44:00,61.6,50.0,29.99,West,272,5.0,11.0,66,0.00,,,0.00,weatherlink.com 1.10,2013-05-24 07:44:00,
2013-05-24 09:59:00,61.9,50.0,30.00,WSW,257,3.0,7.0,66,0.00,,,0.00,weatherlink.com 1.10,2013-05-24 07:59:00,
2013-05-24 10:14:00,62.5,52.0,30.00,West,270,6.0,8.0,68,0.00,,,0.00,weatherlink.com 1.10,2013-05-24 08:14:00,
2013-05-24 10:29:00,62.6,52.0,29.99,WSW,256,7.0,13.0,69,0.00,,,0.00,weatherlink.com 1.10,2013-05-24 08:29:00,
2013-05-24 10:44:00,62.3,53.0,29.99,WNW,295,7.0,12.0,71,0.00,,,0.00,weatherlink.com 1.10,2013-05-24 08:44:00,
2013-05-24 10:59:00,62.7,52.0,30.00,West,262,12.0,15.0,67,0.00,,,0.00,weatherlink.com 1.10,2013-05-24 08:59:00,
2013-05-24 11:14:00,63.0,52.0,30.00,West,276,7.0,15.0,68,0.00,,,0.00,weatherlink.com 1.10,2013-05-24 09:14:00,
2013-05-24 11:29:00,63.2,50.0,30.01,WNW,284,8.0,12.0,62,0.00,,,0.00,weatherlink.com 1.10,2013-05-24 09:29:00,
2013-05-24 11:44:00,62.8,50.0,30.01,West,274,10.0,16.0,63,0.00,,,0.00,weatherlink.com 1.10,2013-05-24 09:44:00,
2013-05-24 11:59:00,62.2,51.0,30.01,WSW,238,6.0,13.0,66,0.00,,,0.00,weatherlink.com 1.10,2013-05-24 09:59:00,
2013-05-24 12:14:00,62.7,52.0,30.01,West,274,10.0,17.0,69,0.00,,,0.00,weatherlink.com 1.10,2013-05-24 10:14:00,
2013-05-24 12:29:00,62.4,52.0,30.01,WNW,295,9.0,16.0,69,0.00,,,0.00,weatherlink.com 1.10,2013-05-24 10:29:00,
2013-05-24 12:44:00,62.9,51.0,30.02,West,269,11.0,14.0,66,0.00,,,0.00,weatherlink.com 1.10,2013-05-24 10:44:00,
2013-05-24 12:59:00,63.0,52.0,30.01,WSW,244,9.0,15.0,68,0.00,,,0.00,weatherlink.com 1.10,2013-05-24 10:59:00,
2013-05-24 13:14:00,62.6,51.0,30.01,West,270,9.0,15.0,67,0.00,,,0.00,weatherlink.com 1.10,2013-05-24 11:14:00,
2013-05-24 13:29:00,63.0,51.0,30.01,WNW,283,10.0,15.0,66,0.00,,,0.00,weatherlink.com 1.10,2013-05-24 11:29:00,
2013-05-24 13:44:00,64.1,52.0,30.01,WSW,252,10.0,14.0,64,0.00,,,0.00,weatherlink.com 1.10,2013-05-24 11:44:00,
2013-05-24 13:59:00,62.9,51.0,30.01,WNW,287,12.0,18.0,66,0.00,,,0.00,weatherlink.com 1.10,2013-05-24 11:59:00,
2013-05-24 14:14:00,62.6,51.0,30.02,WNW,291,7.0,16.0,66,0.00,,,0.00,weatherlink.com 1.10,2013-05-24 12:14:00,
2013-05-24 14:29:00,62.9,52.0,30.01,West,262,9.0,15.0,67,0.00,,,0.00,weatherlink.com 1.10,2013-05-24 12:29:00,
2013-05-24 14:44:00,62.4,51.0,30.02,West,269,9.0,13.0,66,0.00,,,0.00,weatherlink.com 1.10,2013-05-24 12:44:00,
2013-05-24 15:00:00,61.9,52.0,30.02,WNW,300,6.0,15.0,69,0.00,,,0.00,weatherlink.com 1.10,2013-05-24 13:00:00,
2013-05-24 15:15:00,61.8,52.0,30.02,West,270,5.0,13.0,70,0.00,,,0.00,weatherlink.com 1.10,2013-05-24 13:15:00,
2013-05-24 15:30:00,61.3,52.0,30.03,West,277,9.0,11.0,71,0.00,,,0.00,weatherlink.com 1.10,2013-05-24 13:30:00,
2013-05-24 15:45:00,61.1,52.0,30.03,WSW,257,4.0,11.0,71,0.00,,,0.00,weatherlink.com 1.10,2013-05-24 13:45:00,
2013-05-24 16:00:00,61.9,52.0,30.03,West,271,10.0,10.0,70,0.00,,,0.00,weatherlink.com 1.10,2013-05-24 14:00:00,
2013-05-24 16:15:00,62.1,52.0,30.03,West,281,8.0,12.0,69,0.00,,,0.00,weatherlink.com 1.10,2013-05-24 14:15:00,
2013-05-24 16:30:00,62.2,52.0,30.03,West,267,9.0,12.0,69,0.00,,,0.00,weatherlink.com 1.10,2013-05-24 14:30:00,
2013-05-24 16:45:00,61.2,52.0,30.03,West,270,10.0,12.0,71,0.00,,,0.00,weatherlink.com 1.10,2013-05-24 14:45:00,
2013-05-24 17:00:00,61.7,52.0,30.03,West,263,5.0,13.0,71,0.00,,,0.00,weatherlink.com 1.10,2013-05-24 15:00:00,
2013-05-24 17:15:00,61.5,52.0,30.03,West,264,8.0,15.0,71,0.00,,,0.00,weatherlink.com 1.10,2013-05-24 15:15:00,
2013-05-24 17:30:00,61.9,52.0,30.03,West,281,5.0,15.0,70,0.00,,,0.00,weatherlink.com 1.10,2013-05-24 15:30:00,
2013-05-24 17:45:00,61.8,51.0,30.03,West,264,11.0,16.0,69,0.00,,,0.00,weatherlink.com 1.10,2013-05-24 15:45:00,
2013-05-24 18:00:00,60.8,51.0,30.03,West,274,14.0,14.0,71,0.00,,,0.00,weatherlink.com 1.10,2013-05-24 16:00:00,
2013-05-24 18:15:00,59.9,51.0,30.03,West,276,10.0,15.0,72,0.00,,,0.00,weatherlink.com 1.10,2013-05-24 16:15:00,
2013-05-24 18:30:00,59.9,50.0,30.03,WNW,300,7.0,16.0,71,0.00,,,0.00,weatherlink.com 1.10,2013-05-24 16:30:00,
2013-05-24 18:45:00,59.3,50.0,30.02,West,260,17.0,17.0,72,0.00,,,0.00,weatherlink.com 1.10,2013-05-24 16:45:00,
2013-05-24 19:00:00,59.1,50.0,30.03,SW,231,6.0,16.0,72,0.00,,,0.00,weatherlink.com 1.10,2013-05-24 17:00:00,
2013-05-24 19:15:00,58.7,50.0,30.02,WSW,257,13.0,16.0,72,0.00,,,0.00,weatherlink.com 1.10,2013-05-24 17:15:00,
2013-05-24 19:30:00,58.4,50.0,30.03,WSW,256,10.0,16.0,73,0.00,,,0.00,weatherlink.com 1.10,2013-05-24 17:30:00,
2013-05-24 19:45:00,58.4,50.0,30.03,West,271,9.0,14.0,73,0.00,,,0.00,weatherlink.com 1.10,2013-05-24 17:45:00,
2013-05-24 20:00:00,58.2,50.0,30.03,West,276,10.0,14.0,73,0.00,,,0.00,weatherlink.com 1.10,2013-05-24 18:00:00,
2013-05-24 20:15:00,57.8,50.0,30.04,West,274,13.0,16.0,74,0.00,,,0.00,weatherlink.com 1.10,2013-05-24 18:15:00,
2013-05-24 20:30:00,57.6,49.0,30.04,West,276,7.0,16.0,74,0.00,,,0.00,weatherlink.com 1.10,2013-05-24 18:30:00,
2013-05-24 20:45:00,57.6,50.0,30.04,West,263,6.0,15.0,75,0.00,,,0.00,weatherlink.com 1.10,2013-05-24 18:45:00,
2013-05-24 21:00:00,57.4,50.0,30.04,West,281,7.0,12.0,76,0.00,,,0.00,weatherlink.com 1.10,2013-05-24 19:00:00,
2013-05-24 21:15:00,57.1,50.0,30.05,West,277,9.0,13.0,76,0.00,,,0.00,weatherlink.com 1.10,2013-05-24 19:15:00,
2013-05-24 21:30:00,56.9,50.0,30.05,WSW,245,9.0,13.0,77,0.00,,,0.00,weatherlink.com 1.10,2013-05-24 19:30:00,
2013-05-24 21:45:00,56.6,50.0,30.05,WSW,243,6.0,9.0,78,0.00,,,0.00,weatherlink.com 1.10,2013-05-24 19:45:00,
2013-05-24 22:00:00,56.5,50.0,30.06,West,266,4.0,11.0,79,0.00,,,0.00,weatherlink.com 1.10,2013-05-24 20:00:00,
2013-05-24 22:15:00,56.3,50.0,30.07,West,270,6.0,9.0,79,0.00,,,0.00,weatherlink.com 1.10,2013-05-24 20:15:00,
2013-05-24 22:30:00,56.3,50.0,30.07,West,264,4.0,8.0,79,0.00,,,0.00,weatherlink.com 1.10,2013-05-24 20:30:00,
2013-05-24 22:45:00,56.2,50.0,30.07,WNW,286,5.0,8.0,80,0.00,,,0.00,weatherlink.com 1.10,2013-05-24 20:45:00,
2013-05-24 23:00:00,56.2,50.0,30.07,WNW,285,4.0,9.0,80,0.00,,,0.00,weatherlink.com 1.10,2013-05-24 21:00:00,
2013-05-24 23:15:00,55.9,50.0,30.07,West,264,4.0,8.0,81,0.00,,,0.00,weatherlink.com 1.10,2013-05-24 21:15:00,
2013-05-24 23:30:00,55.6,50.0,30.07,West,260,4.0,5.0,82,0.00,,,0.00,weatherlink.com 1.10,2013-05-24 21:30:00,
2013-05-24 23:45:00,55.4,50.0,30.08,SW,215,0.0,2.0,82,0.00,,,0.00,weatherlink.com 1.10,2013-05-24 21:45:00,